Tracking 25707 objects as of 29-Jun-2022
HD Live streaming from Space Station
objects crossing your sky now

STARLINK-3886

Track STARLINK-3886 now!
10-day predictions
STARLINK-3886 is classified as:


NORAD ID: 52582
Int'l Code: 2022-051AY
Perigee: 356.7 km
Apogee: 359.7 km
Inclination: 53.2 °
Period: 91.6 minutes
Semi major axis: 6729 km
RCS: Unknown
Launch date: May 13, 2022
Source: United States (US)
Launch site: AIR FORCE WESTERN TEST RANGE (AFWTR)
aabbcc
Your satellite tracking list
Your tracking list is empty




NASA's NSSDC Master Catalog

Two Line Element Set (TLE):
1 52582U 22051AY  22180.58334491 -.01054348  00000-0 -85124-2 0  9991
2 52582  53.2174  62.1465 0002214  19.7836 236.3977 15.72738894  1308
Source of the keplerian elements: AFSPC